Meteo Giornale » Osservazioni meteo Corea del Sud » Gimhwa
ore: 14:50 - Osservazioni Meteo Gimhwa
Lat. 38° 15' N Lon. 127° 25' E Alt. 204 metri s.l.m.
24 °C
Molto Nuvoloso
Temp. 24 Ore
21 °C
24 °C
Nord
1.8 Km/h
Dew point 22 °C
Umidità 88 %
Visibilità 10 Km
Il sole sorge alle ore 05:59
Il sole tramonta alle ore 19:01
| Data e Ora | Cielo e Fenomeni | T °C | DP °C | Um. % | Pres. hPa | Vis. km | Vento km/h | |
|---|---|---|---|---|---|---|---|---|
| Oggi h: 14:50 | Molto Nuvoloso | 24 | 22 | 88 | 1011 | 10 | N 1.8 | |
| Oggi h: 14:40 | Molto Nuvoloso | 24 | 23 | 94 | 1010 | 10 | N 1.8 | |
| Oggi h: 14:30 | Molto Nuvoloso | 24 | 22 | 88 | 1011 | 10 | N 1.8 | |
| Oggi h: 14:20 | Molto Nuvoloso | 24 | 22 | 88 | 1010 | 10 | N 1.8 | |
| Oggi h: 14:10 | Molto Nuvoloso | 23 | 22 | 94 | 1011 | 10 | N 5.5 | |
| Oggi h: 14:00 | Molto Nuvoloso | 23 | 22 | 94 | 1011 | 10 | N 1.8 | |
| Oggi h: 13:50 | Molto Nuvoloso | 23 | 21 | 88 | 1011 | 10 | N 3.7 | |
| Oggi h: 13:40 | Molto Nuvoloso | 23 | 22 | 94 | 1011 | 10 | N 1.8 | |
| Oggi h: 13:30 | Molto Nuvoloso | 23 | 22 | 94 | 1011 | 10 | N 1.8 | |
| Oggi h: 13:20 | Molto Nuvoloso | 23 | 22 | 94 | 1011 | 10 | N 1.8 | |
| Oggi h: 13:10 | Molto Nuvoloso | 23 | 22 | 94 | 1011 | 10 | N 1.8 | |
| Oggi h: 13:00 | Molto Nuvoloso | 22 | 22 | 100 | 1011 | 10 | N 0 | |
| Oggi h: 12:50 | Molto Nuvoloso | 22 | 22 | 100 | 1011 | 10 | N 1.8 | |
| Oggi h: 12:40 | Molto Nuvoloso | 22 | 22 | 100 | 1011 | 10 | N 1.8 | |
| Oggi h: 12:30 | Molto Nuvoloso | 22 | 22 | 100 | 1011 | 10 | N 1.8 | |
| Oggi h: 12:20 | Molto Nuvoloso | 22 | 22 | 100 | 1011 | 10 | N 1.8 | |
| Oggi h: 12:10 | Molto Nuvoloso | 22 | 22 | 100 | 1012 | 10 | N 1.8 | |
| Oggi h: 12:00 | Molto Nuvoloso | 22 | 22 | 100 | 1011 | 10 | N 1.8 | |
| Oggi h: 11:50 | Molto Nuvoloso | 22 | 22 | 100 | 1011 | 10 | N 0 | |
| Oggi h: 11:40 | Molto Nuvoloso | 21 | 21 | 100 | 1011 | 10 | N 1.8 | |
| Oggi h: 11:30 | Molto Nuvoloso | 21 | 21 | 100 | 1012 | 10 | N 1.8 | |
| Oggi h: 11:20 | Nuvoloso | 21 | 21 | 100 | 1012 | 10 | N 1.8 | |
| Oggi h: 11:10 | Molto Nuvoloso | 21 | 21 | 100 | 1012 | 10 | N 1.8 | |
| Oggi h: 11:00 | Molto Nuvoloso | 21 | 21 | 100 | 1012 | 10 | N 1.8 | |
| Oggi h: 10:50 | Molto Nuvoloso | 21 | 21 | 100 | 1012 | 10 | N 1.8 | |
| Oggi h: 10:40 | Coperto | 21 | 21 | 100 | 1012 | 10 | N 1.8 | |
| Oggi h: 10:30 | Molto Nuvoloso | 21 | 21 | 100 | 1012 | 10 | N 1.8 | |
| Oggi h: 10:20 | Coperto | 21 | 21 | 100 | 1012 | 10 | N 0 | |
| Oggi h: 10:10 | Coperto | 21 | 21 | 100 | 1012 | 10 | N 1.8 | |
| Oggi h: 10:00 | Coperto | 21 | 21 | 100 | 1012 | 10 | N 0 | |
| Oggi h: 09:50 | Pioggia | 21 | 21 | 100 | 1012 | 5 | N 0 | |
| Oggi h: 09:40 | Pioggia | 21 | 21 | 100 | 1012 | 2 | N 1.8 | |
| Oggi h: 09:30 | Pioggia | 21 | 21 | 100 | 1012 | 9 | N 0 | |
| Oggi h: 09:20 | Pioggia | 21 | 21 | 100 | 1012 | 2 | N 1.8 | |
| Oggi h: 09:10 | Pioggia | 21 | 21 | 100 | 1011 | 6 | N 1.8 | |
| Oggi h: 09:00 | Pioggia | 21 | 21 | 100 | 1011 | 6 | N 1.8 | |
| Oggi h: 08:50 | Coperto | 21 | 21 | 100 | 1011 | 10 | N 1.8 | |
| Oggi h: 08:40 | Coperto | 21 | 21 | 100 | 1012 | 10 | N 1.8 | |
| Oggi h: 08:30 | Pioggia | 21 | 21 | 100 | 1011 | 9 | N 1.8 | |
| Oggi h: 08:20 | Pioggia | 21 | 21 | 100 | 1012 | 5 | N 3.7 | |
| Oggi h: 08:10 | Pioggia | 21 | 21 | 100 | 1012 | 3 | N 3.7 | |
| Oggi h: 08:00 | Pioggia | 21 | 21 | 100 | 1012 | 2 | N 3.7 | |
| Oggi h: 07:50 | Coperto | 21 | 21 | 100 | 1011 | 10 | N 1.8 | |
| Oggi h: 07:40 | Coperto | 21 | 21 | 100 | 1011 | 10 | N 1.8 | |
| Oggi h: 07:30 | Coperto | 21 | 21 | 100 | 1011 | 10 | N 1.8 | |
| Oggi h: 07:20 | Coperto | 21 | 21 | 100 | 1011 | 10 | N 3.7 | |
| Oggi h: 07:10 | Pioggia | 21 | 21 | 100 | 1011 | 1 | N 3.7 | |
| Oggi h: 07:00 | Pioggia | 21 | 21 | 100 | 1011 | 5 | N 1.8 | |
| Oggi h: 06:50 | Pioggia | 21 | 21 | 100 | 1011 | 8 | N 1.8 | |
| Oggi h: 06:40 | Coperto | 21 | 21 | 100 | 1011 | 10 | N 1.8 | |
| Oggi h: 06:30 | Coperto | 21 | 21 | 100 | 1011 | 10 | N 1.8 | |
| Oggi h: 06:20 | Coperto | 21 | 21 | 100 | 1011 | 10 | N 1.8 | |
| Oggi h: 06:10 | Coperto | 21 | 21 | 100 | 1010 | 10 | N 1.8 | |
| Oggi h: 06:00 | Coperto | 21 | 21 | 100 | 1010 | 10 | N 1.8 | |
| Oggi h: 05:50 | Pioggia | 21 | 21 | 100 | 1010 | 3 | N 1.8 | |
| Oggi h: 05:40 | Pioggia | 21 | 21 | 100 | 1010 | 2 | N 1.8 | |
| Oggi h: 04:20 | Coperto | 21 | 21 | 100 | 1010 | 10 | N 1.8 | |
| Oggi h: 04:10 | Coperto | 21 | 21 | 100 | 1010 | 10 | N 0 | |
| Oggi h: 04:00 | Coperto | 21 | 21 | 100 | 1010 | 10 | N 0 | |
| Oggi h: 03:50 | Coperto | 21 | 21 | 100 | 1010 | 10 | N 1.8 | |
| Oggi h: 03:40 | Coperto | 21 | 21 | 100 | 1010 | 10 | N 1.8 | |
| Oggi h: 03:30 | Coperto | 21 | 21 | 100 | 1010 | 10 | N 1.8 | |
| Oggi h: 03:20 | Coperto | 21 | 21 | 100 | 1010 | 10 | N 1.8 | |
| Oggi h: 03:10 | Coperto | 21 | 21 | 100 | 1010 | 10 | N 1.8 | |
| Oggi h: 03:00 | Coperto | 21 | 21 | 100 | 1010 | 10 | N 1.8 | |



